Time,TemperatureF,DewpointF,PressureIn,WindDirection,WindDirectionDegrees,WindSpeedMPH,WindSpeedGustMPH,Humidity,HourlyPrecipIn,Conditions,Clouds,dailyrainin,SoftwareType,DateUTC
2013-03-07 00:13:00,27.7,27.5,30.14,North,0,4.7,-999.0,99,-99.99,,,0.00,Acu-Link.com,2013-03-07 06:13:00,
2013-03-07 00:28:00,27.7,27.5,30.14,WNW,292,4.7,-999.0,99,-99.99,,,0.00,Acu-Link.com,2013-03-07 06:28:00,
2013-03-07 00:43:00,27.5,27.3,30.15,North,0,1.1,-999.0,99,-99.99,,,0.00,Acu-Link.com,2013-03-07 06:43:00,
2013-03-07 00:59:00,27.3,27.1,30.15,WNW,292,1.1,-999.0,99,-99.99,,,0.00,Acu-Link.com,2013-03-07 06:59:00,
2013-03-07 01:14:00,27.3,27.1,30.15,NW,315,1.1,-999.0,99,-99.99,,,0.00,Acu-Link.com,2013-03-07 07:14:00,
2013-03-07 01:29:00,27.3,27.1,30.16,West,270,4.2,-999.0,99,-99.99,,,0.00,Acu-Link.com,2013-03-07 07:29:00,
2013-03-07 01:44:00,27.3,27.1,30.16,West,270,5.3,-999.0,99,-99.99,,,0.00,Acu-Link.com,2013-03-07 07:44:00,
2013-03-07 01:59:00,27.1,26.9,30.17,West,270,4.2,-999.0,99,-99.99,,,0.00,Acu-Link.com,2013-03-07 07:59:00,
2013-03-07 02:15:00,27.0,26.8,30.18,West,270,5.3,-999.0,99,-99.99,,,0.00,Acu-Link.com,2013-03-07 08:15:00,
2013-03-07 02:30:00,26.6,26.4,30.18,WNW,292,5.3,-999.0,99,-99.99,,,0.00,Acu-Link.com,2013-03-07 08:30:00,
2013-03-07 02:45:00,26.2,26.0,30.18,WNW,292,3.7,-999.0,99,-99.99,,,0.00,Acu-Link.com,2013-03-07 08:45:00,
2013-03-07 03:00:00,26.1,25.9,30.18,WNW,292,2.7,-999.0,99,-99.99,,,0.00,Acu-Link.com,2013-03-07 09:00:00,
2013-03-07 03:16:00,26.1,25.9,30.18,West,270,3.7,-999.0,99,-99.99,,,0.00,Acu-Link.com,2013-03-07 09:16:00,
2013-03-07 03:31:00,25.7,25.5,30.18,WNW,292,4.2,-999.0,99,-99.99,,,0.00,Acu-Link.com,2013-03-07 09:31:00,
2013-03-07 03:46:00,25.5,25.3,30.18,West,270,2.2,-999.0,99,-99.99,,,0.00,Acu-Link.com,2013-03-07 09:46:00,
2013-03-07 04:01:00,25.2,25.0,30.17,WNW,292,2.2,-999.0,99,-99.99,,,0.00,Acu-Link.com,2013-03-07 10:01:00,
2013-03-07 04:16:00,24.6,24.4,30.17,NW,315,1.7,-999.0,99,-99.99,,,0.00,Acu-Link.com,2013-03-07 10:16:00,
2013-03-07 04:47:00,22.1,21.9,30.17,NNW,337,0.0,-999.0,99,-99.99,,,0.00,Acu-Link.com,2013-03-07 10:47:00,
2013-03-07 05:02:00,21.0,20.8,30.17,NW,315,0.0,-999.0,99,-99.99,,,0.00,Acu-Link.com,2013-03-07 11:02:00,
2013-03-07 05:17:00,19.8,19.6,30.18,NNW,337,0.0,-999.0,99,-99.99,,,0.00,Acu-Link.com,2013-03-07 11:17:00,
2013-03-07 05:32:00,18.9,18.7,30.19,NW,315,0.0,-999.0,99,-99.99,,,0.00,Acu-Link.com,2013-03-07 11:32:00,
2013-03-07 05:48:00,18.5,18.3,30.19,NNE,22,1.1,-999.0,99,-99.99,,,0.00,Acu-Link.com,2013-03-07 11:48:00,
2013-03-07 06:18:00,16.3,16.1,30.19,East,90,0.0,-999.0,99,-99.99,,,0.00,Acu-Link.com,2013-03-07 12:18:00,
2013-03-07 06:33:00,15.4,15.2,30.19,NNE,22,0.0,-999.0,99,-99.99,,,0.00,Acu-Link.com,2013-03-07 12:33:00,
2013-03-07 06:48:00,15.4,15.2,30.20,ESE,112,0.0,-999.0,99,-99.99,,,0.00,Acu-Link.com,2013-03-07 12:48:00,
2013-03-07 07:04:00,21.6,21.4,30.21,NE,45,1.7,-999.0,99,-99.99,,,0.00,Acu-Link.com,2013-03-07 13:04:00,
2013-03-07 07:19:00,26.1,24.4,30.21,NNE,22,0.0,-999.0,93,-99.99,,,0.00,Acu-Link.com,2013-03-07 13:19:00,
2013-03-07 07:34:00,22.3,21.6,30.22,NNW,337,0.0,-999.0,97,-99.99,,,0.00,Acu-Link.com,2013-03-07 13:34:00,
2013-03-07 07:49:00,23.9,22.4,30.22,NNW,337,2.2,-999.0,94,-99.99,,,0.00,Acu-Link.com,2013-03-07 13:49:00,
2013-03-07 08:05:00,24.1,22.1,30.23,NW,315,3.2,-999.0,92,-99.99,,,0.00,Acu-Link.com,2013-03-07 14:05:00,
2013-03-07 08:20:00,25.0,21.7,30.23,West,270,2.2,-999.0,87,-99.99,,,0.00,Acu-Link.com,2013-03-07 14:20:00,
2013-03-07 08:51:00,27.5,21.9,30.23,NNW,337,0.0,-999.0,79,-99.99,,,0.00,Acu-Link.com,2013-03-07 14:51:00,
2013-03-07 09:06:00,28.2,21.6,30.23,West,270,2.7,-999.0,76,-99.99,,,0.00,Acu-Link.com,2013-03-07 15:06:00,
2013-03-07 09:21:00,28.4,21.5,30.23,WSW,247,4.2,-999.0,75,-99.99,,,0.00,Acu-Link.com,2013-03-07 15:21:00,
2013-03-07 09:36:00,30.0,21.8,30.24,West,270,2.7,-999.0,71,-99.99,,,0.00,Acu-Link.com,2013-03-07 15:36:00,
2013-03-07 09:52:00,30.7,22.1,30.23,West,270,2.7,-999.0,70,-99.99,,,0.00,Acu-Link.com,2013-03-07 15:52:00,
2013-03-07 10:07:00,32.0,22.3,30.23,West,270,2.2,-999.0,67,-99.99,,,0.00,Acu-Link.com,2013-03-07 16:07:00,
2013-03-07 10:22:00,32.4,23.4,30.23,West,270,2.7,-999.0,69,-99.99,,,0.00,Acu-Link.com,2013-03-07 16:22:00,
2013-03-07 10:37:00,34.2,22.9,30.23,West,270,3.7,-999.0,63,-99.99,,,0.00,Acu-Link.com,2013-03-07 16:37:00,
2013-03-07 10:52:00,34.2,23.3,30.23,WNW,292,4.2,-999.0,64,-99.99,,,0.00,Acu-Link.com,2013-03-07 16:52:00,
2013-03-07 11:08:00,35.2,23.5,30.23,West,270,3.7,-999.0,62,-99.99,,,0.00,Acu-Link.com,2013-03-07 17:08:00,
2013-03-07 11:23:00,35.8,22.9,30.24,WNW,292,3.7,-999.0,59,-99.99,,,0.00,Acu-Link.com,2013-03-07 17:23:00,
2013-03-07 11:38:00,35.2,23.1,30.24,West,270,3.2,-999.0,61,-99.99,,,0.00,Acu-Link.com,2013-03-07 17:38:00,
2013-03-07 11:53:00,36.0,22.3,30.24,West,270,6.3,-999.0,57,-99.99,,,0.00,Acu-Link.com,2013-03-07 17:53:00,
2013-03-07 12:08:00,35.2,22.3,30.24,NW,315,3.7,-999.0,59,-99.99,,,0.00,Acu-Link.com,2013-03-07 18:08:00,
2013-03-07 12:24:00,36.0,23.1,30.23,West,270,4.7,-999.0,59,-99.99,,,0.00,Acu-Link.com,2013-03-07 18:24:00,
2013-03-07 12:39:00,36.1,22.4,30.22,WNW,292,3.2,-999.0,57,-99.99,,,0.00,Acu-Link.com,2013-03-07 18:39:00,
2013-03-07 12:54:00,36.5,23.1,30.23,WNW,292,3.7,-999.0,58,-99.99,,,0.00,Acu-Link.com,2013-03-07 18:54:00,
2013-03-07 13:09:00,36.5,23.1,30.22,WNW,292,3.7,-999.0,58,-99.99,,,0.00,Acu-Link.com,2013-03-07 19:09:00,
2013-03-07 13:24:00,36.1,21.9,30.22,West,270,4.2,-999.0,56,-99.99,,,0.00,Acu-Link.com,2013-03-07 19:24:00,
2013-03-07 13:40:00,36.5,22.3,30.22,WNW,292,2.2,-999.0,56,-99.99,,,0.00,Acu-Link.com,2013-03-07 19:40:00,
2013-03-07 13:55:00,36.5,21.9,30.22,West,270,4.2,-999.0,55,-99.99,,,0.00,Acu-Link.com,2013-03-07 19:55:00,
2013-03-07 14:10:00,37.8,23.5,30.22,West,270,2.7,-999.0,56,-99.99,,,0.00,Acu-Link.com,2013-03-07 20:10:00,
2013-03-07 14:25:00,36.5,21.9,30.22,WNW,292,3.7,-999.0,55,-99.99,,,0.00,Acu-Link.com,2013-03-07 20:25:00,
2013-03-07 14:41:00,35.6,22.3,30.21,North,0,2.2,-999.0,58,-99.99,,,0.00,Acu-Link.com,2013-03-07 20:41:00,
2013-03-07 14:56:00,35.6,22.3,30.21,West,270,1.1,-999.0,58,-99.99,,,0.00,Acu-Link.com,2013-03-07 20:56:00,
2013-03-07 15:11:00,36.3,23.4,30.22,WNW,292,3.7,-999.0,59,-99.99,,,0.00,Acu-Link.com,2013-03-07 21:11:00,
2013-03-07 15:26:00,36.0,22.3,30.22,West,270,3.2,-999.0,57,-99.99,,,0.00,Acu-Link.com,2013-03-07 21:26:00,
2013-03-07 15:41:00,35.6,21.5,30.22,West,270,3.7,-999.0,56,-99.99,,,0.00,Acu-Link.com,2013-03-07 21:41:00,
2013-03-07 15:57:00,34.3,21.9,30.22,NNE,22,2.2,-999.0,60,-99.99,,,0.00,Acu-Link.com,2013-03-07 21:57:00,
2013-03-07 16:12:00,33.3,22.1,30.22,WNW,292,0.0,-999.0,63,-99.99,,,0.00,Acu-Link.com,2013-03-07 22:12:00,
2013-03-07 16:27:00,35.2,21.9,30.22,NW,315,1.7,-999.0,58,-99.99,,,0.00,Acu-Link.com,2013-03-07 22:27:00,
2013-03-07 16:46:00,34.2,21.8,30.21,NNE,22,0.0,-999.0,60,-99.99,,,0.00,Acu-Link.com,2013-03-07 22:46:00,
2013-03-07 17:02:00,36.5,21.9,30.21,North,0,0.0,-999.0,55,-99.99,,,0.00,Acu-Link.com,2013-03-07 23:02:00,
2013-03-07 17:19:00,38.8,22.2,30.22,West,270,0.0,-999.0,51,-99.99,,,0.00,Acu-Link.com,2013-03-07 23:19:00,
2013-03-07 17:35:00,35.4,20.9,30.22,WNW,292,0.0,-999.0,55,-99.99,,,0.00,Acu-Link.com,2013-03-07 23:35:00,
2013-03-07 17:50:00,30.0,20.7,30.23,NNW,337,0.0,-999.0,68,-99.99,,,0.00,Acu-Link.com,2013-03-07 23:50:00,
2013-03-07 18:05:00,26.1,21.7,30.23,NNW,337,0.0,-999.0,83,-99.99,,,0.00,Acu-Link.com,2013-03-08 00:05:00,
2013-03-07 18:20:00,23.4,21.7,30.24,NNW,337,0.0,-999.0,93,-99.99,,,0.00,Acu-Link.com,2013-03-08 00:20:00,
2013-03-07 18:35:00,22.5,22.3,30.23,ENE,67,0.0,-999.0,99,-99.99,,,0.00,Acu-Link.com,2013-03-08 00:35:00,
2013-03-07 18:51:00,21.6,21.4,30.23,ESE,112,0.0,-999.0,99,-99.99,,,0.00,Acu-Link.com,2013-03-08 00:51:00,
2013-03-07 19:06:00,20.3,20.1,30.24,NW,315,0.0,-999.0,99,-99.99,,,0.00,Acu-Link.com,2013-03-08 01:06:00,
2013-03-07 19:21:00,19.6,19.4,30.24,WNW,292,0.0,-999.0,99,-99.99,,,0.00,Acu-Link.com,2013-03-08 01:21:00,
2013-03-07 19:36:00,19.4,19.2,30.25,WNW,292,0.0,-999.0,99,-99.99,,,0.00,Acu-Link.com,2013-03-08 01:36:00,
2013-03-07 19:51:00,18.5,18.3,30.24,North,0,0.0,-999.0,99,-99.99,,,0.00,Acu-Link.com,2013-03-08 01:51:00,
2013-03-07 20:07:00,18.3,18.1,30.25,NNW,337,0.0,-999.0,99,-99.99,,,0.00,Acu-Link.com,2013-03-08 02:07:00,
2013-03-07 20:22:00,18.9,18.7,30.25,West,270,0.0,-999.0,99,-99.99,,,0.00,Acu-Link.com,2013-03-08 02:22:00,
2013-03-07 20:37:00,20.1,19.9,30.25,East,90,0.0,-999.0,99,-99.99,,,0.00,Acu-Link.com,2013-03-08 02:37:00,
2013-03-07 20:52:00,17.4,17.2,30.25,East,90,0.0,-999.0,99,-99.99,,,0.00,Acu-Link.com,2013-03-08 02:52:00,
2013-03-07 21:23:00,15.8,15.6,30.25,NNE,22,0.0,-999.0,99,-99.99,,,0.00,Acu-Link.com,2013-03-08 03:23:00,
2013-03-07 21:38:00,14.9,14.7,30.26,NE,45,0.0,-999.0,99,-99.99,,,0.00,Acu-Link.com,2013-03-08 03:38:00,
2013-03-07 21:55:00,14.0,13.8,30.26,NNE,22,0.0,-999.0,99,-99.99,,,0.00,Acu-Link.com,2013-03-08 03:55:00,
2013-03-07 22:10:00,13.1,12.9,30.27,NE,45,0.0,-999.0,99,-99.99,,,0.00,Acu-Link.com,2013-03-08 04:10:00,
2013-03-07 22:25:00,11.8,11.6,30.27,NE,45,0.0,-999.0,99,-99.99,,,0.00,Acu-Link.com,2013-03-08 04:25:00,
2013-03-07 22:40:00,10.9,10.7,30.27,NE,45,0.0,-999.0,99,-99.99,,,0.00,Acu-Link.com,2013-03-08 04:40:00,
2013-03-07 22:55:00,10.9,10.7,30.27,NE,45,0.0,-999.0,99,-99.99,,,0.00,Acu-Link.com,2013-03-08 04:55:00,
2013-03-07 23:10:00,10.6,10.4,30.27,NE,45,0.0,-999.0,99,-99.99,,,0.00,Acu-Link.com,2013-03-08 05:10:00,
2013-03-07 23:26:00,10.4,10.2,30.27,ENE,67,0.0,-999.0,99,-99.99,,,0.00,Acu-Link.com,2013-03-08 05:26:00,
2013-03-07 23:41:00,9.7,9.5,30.26,ENE,67,0.0,-999.0,99,-99.99,,,0.00,Acu-Link.com,2013-03-08 05:41:00,
2013-03-07 23:56:00,9.3,9.1,30.26,WSW,247,0.0,-999.0,99,-99.99,,,0.00,Acu-Link.com,2013-03-08 05:56:00,